Hourly Weather Roundup
Issued by NWS Central Illinois

Home | Current Version | Previous Version | Text Only | Print | Product List | Glossary On
Versions: 1 2 3 4 5 6 7 8 9 10 11 12 13 14 15 16 17 18 19 20 21 22 23 24 25 26 27 28 29 30 31 32 33 34 35 36 37 38 39 40 41 42 43 44 45 46 47 48 49 50
000
NZUS43 KILX 141110
HWRILX

Area Weather Roundup
National Weather Service Lincoln IL
500 AM CST THU DEC 14 2017

NOTE:  "FAIR" indicates few or no clouds below 12,000 feet, with
       no sigificant weather and/or obstructions to visibility.


CITY           SKY/WX    TMP DP  RH WIND       PRES   REMARKS
Bloomington    CLOUDY    21  16  81 N10       29.97R WCI  10
Champaign      CLOUDY    26  18  71 N14       29.94R WCI  14
Danville       CLOUDY    27  20  75 NW10      29.91R WCI  17
Decatur        CLOUDY    26  17  68 N14       29.96R WCI  14
Effingham      CLOUDY    29  20  69 N8        29.97S WCI  21
Flora          CLOUDY    31  20  64 N8        29.96R WCI  23
Galesburg      CLOUDY    21  17  83 CALM      30.00R
Jacksonville   CLOUDY    27  16  64 NW6       29.98S WCI  20
Lacon          PTCLDY    21  14  74 N7        30.00R WCI  12
Lawrenceville  CLOUDY    28  19  69 NW9       29.96R WCI  19
Litchfield     CLOUDY    27  18  67 N13       29.96R WCI  16
$$


CITY           SKY/WX    TMP DP  RH WIND       PRES   REMARKS
Lincoln        CLOUDY    25  18  76 N6        29.98R WCI  18
Macomb         CLOUDY    26  18  71 N6        30.01S WCI  20
Mattoon        CLOUDY    28  18  66 NW12      29.95R WCI  18
Mt Carmel AP   CLOUDY    29  19  67 N9        29.95S WCI  20
Olney-Noble AP CLOUDY    29  17  59 N14G20    29.95F WCI  18
Paris AP       CLOUDY    28  20  73 NW13      29.94R WCI  17
Peoria         CLEAR     22  15  75 N5        29.99R WCI  16
Pontiac        PTCLDY    19  16  88 NW9       29.98R WCI   8
Rantoul        CLOUDY    27  20  75 NW9       29.94R WCI  18
Robinson       CLOUDY    28  20  72 NW8       29.96S WCI  20
Springfield    CLOUDY    28  18  66 N8        29.98R WCI  20
Taylorville    CLOUDY    28  17  65 N7        29.97S WCI  20
$$

...REGIONAL REPORTS...


CITY           SKY/WX    TMP DP  RH WIND       PRES   REMARKS
Chicago O`Hare MOCLDY    18  10  71 NW12      29.95R WCI   5
Kankakee       CLOUDY    22  16  78 NW8       29.96R WCI  12
Moline         CLOUDY    24  15  68 N6        30.00R WCI  17
Mount Sterling CLOUDY    26  17  68 N12       29.98S WCI  16
Mount Vernon   CLOUDY    31  21  66 N7        29.95R WCI  24
Pittsfield     CLOUDY    29  19  67 N7        29.99R WCI  22
Quincy         CLOUDY    27  18  69 N12       29.98S WCI  17
Rockford       PTCLDY    14   8  77 N8        30.00R WCI   3
$$


CITY           SKY/WX    TMP DP  RH WIND       PRES   REMARKS
Burlington     CLOUDY    23  16  74 NW6       29.99R WCI  16
Cedar Rapids   PTCLDY    16  12  84 N3        29.99R
Des Moines     CLOUDY    26  17  68 N5        30.01S WCI  20
Kirksville     CLOUDY    28  25  88 N10       29.99R WCI  19
Ottumwa        CLOUDY    26  17  68 NE7       30.00R WCI  18
St Louis       CLOUDY    31  21  66 N15       29.96R WCI  20
$$


CITY           SKY/WX    TMP DP  RH WIND       PRES   REMARKS
Terre Haute    CLOUDY    29  19  66 NW8       29.93R WCI  21
Evansville     CLOUDY    31  20  63 N9G21     29.94R WCI  23
Indianapolis   CLOUDY    28  18  66 N10       29.90R WCI  19
Lafayette      CLOUDY    28  18  66 N10       29.92R WCI  19
Madison        PTCLDY     9   6  88 CALM      29.98R
Milwaukee      PTCLDY    14   9  80 NW7       29.96R WCI   4
$$






USA.gov is the U.S. government's official web portal to all federal, state and local government web resources and services.